Hourly Data Report for January 23, 2013

BAGOTVILLE A
QUEBEC

48°20'00.000" N
71°00'00.000" W
159.10 m
7060400
71727
YBG

Download Data

Hourly Data (January 2013)
Hourly Data Report for January 23, 2013
TIME
LST
Temp Definition
°C
Dew Point Definition
°C
Rel Hum Definition
%
Precip. Amount Definition
mm

Wind Dir Definition
10's deg

Wind Spd Definition
km/h
Visibility Definition
km
Stn Press Definition
kPa
Hmdx Definition


Wind Chill Definition


Weather Definition


00:00 -28.0 -30.9 76   29 24 24.1 99.63   -42 Clear
01:00 -28.4 -31.3 76   28 20 24.1 99.64   -41 Clear
02:00 -28.8 -31.8 75   28 22 24.1 99.65   -42 Clear
03:00 -29.0 -32.0 75   28 22 24.1 99.62   -42 Clear
04:00 -29.3 -32.3 75   28 19 24.1 99.61   -42 Mainly Clear
05:00 -29.9 -32.9 75   29 22 24.1 99.61   -44 Clear
06:00 -30.4 -33.5 74   27 19 24.1 99.64   -43 Mainly Clear
07:00 -30.6 -33.7 74   27 20 24.1 99.64   -44 Mainly Clear
08:00 -30.5 -35.5 62   20 13 32.2 99.65   -41 Mainly Clear
09:00 -29.5 -34.2 64   28 20 32.2 99.67   -42 Mainly Clear
10:00 -28.4 -32.9 65   28 32 11.3 99.66   -44 Mainly Clear
11:00 -27.5 -33.4 57   29 33 9.7 99.58   -43 Snow Showers
12:00 -26.2 -31.7 60   30 26 6.4 99.50   -40 Snow Showers
13:00 -25.4 -30.6 62   31 24 4.0 99.43   -38 Snow Showers
14:00 -24.0 -28.8 65   29 22 4.0 99.38   -36 Snow Showers
15:00 -23.8 -27.4 72   28 28 3.2 99.39   -37 Snow Showers
16:00 -23.6 -26.2 79   28 28 2.4 99.37   -37 Snow Showers
17:00 -22.9 -26.4 73   29 28 3.2 99.38   -36 Snow
18:00 -21.6 -24.8 75   28 26 4.8 99.39   -34 Snow
19:00 -22.8 -26.2 74   29 35 3.2 99.39   -37 Snow,Blowing Snow
20:00 -23.1 -25.6 80   29 39 3.2 99.40   -38 Snow,Blowing Snow
21:00 -23.5 -26.0 80   29 33 3.2 99.39   -38 Snow,Blowing Snow
22:00 -23.6 -27.2 72   29 33 3.2 99.36   -38 Snow,Blowing Snow
23:00 -23.6 -26.2 79   28 30 3.2 99.36   -37 Snow,Blowing Snow

Notes on Data Quality.

Legend

  • E = Estimated
  • M = Missing
  • NA = Not Available*
  • [empty] = Indicates an unobserved value
Date modified: